DW4063 Weather Reports


Display with metric or nautical units.
time (UTC)temp
F
wind
direction
speed
MPH
gust
MPH
rain 1hr
in
rain 24hr
in
rain mn
in
humidity
%
barometer
mb
20260906031535 72 103 0.0 2.0 0.00 0.01 0.01 86 1017.0
20260906030029 72 120 0.0 3.0 0.00 0.01 0.01 86 1016.9
20260906024531 72 136 0.0 2.0 0.00 0.01 0.01 86 1017.0
20260906023032 72 115 1.0 3.0 0.00 0.01 0.01 86 1017.1
20260906021536 72 113 1.0 4.0 0.00 0.01 0.01 86 1016.9
20260906020036 72 101 0.0 4.0 0.00 0.01 0.01 86 1016.9
20260906014532 72 91 0.0 4.0 0.00 0.01 0.01 86 1017.0
20260906013034 72 116 0.0 3.0 0.00 0.01 0.01 86 1017.1
20260906011535 72 123 0.0 3.0 0.00 0.01 0.01 86 1017.1
20260906010030 72 5 0.0 3.0 0.00 0.01 0.01 86 1017.0
20260906004530 72 122 0.0 3.0 0.00 0.01 0.01 85 1016.8
20260906003035 73 236 0.0 3.0 0.00 0.01 0.01 85 1016.5
20260906001548 73 88 0.0 3.0 0.00 0.01 0.01 85 1016.4
20260906000035 74 98 0.0 3.0 0.00 0.01 0.01 83 1016.2
20260905234533 75 35 0.0 2.0 0.00 0.01 0.01 82 1016.2
20260905233032 76 79 0.0 3.0 0.00 0.01 0.01 82 1016.1
20260905231512 77 71 0.0 3.0 0.00 0.01 0.01 80 1016.0
20260905230006 78 93 0.0 4.0 0.00 0.01 0.01 78 1015.8
20260905224525 80 55 0.0 4.0 0.00 0.01 0.01 76 1015.5
20260905223033 81 92 1.0 4.0 0.00 0.01 0.01 74 1015.4
20260905221521 82 75 0.0 2.0 0.00 0.01 0.01 73 1015.2
20260905220010 83 150 0.0 2.0 0.00 0.01 0.01 74 1015.4
20260905214511 83 184 0.0 2.0 0.00 0.01 0.01 74 1015.4
20260905213006 83 69 0.0 3.0 0.00 0.01 0.01 73 1015.4
20260905211528 82 205 0.0 1.0 0.00 0.01 0.01 77 1015.4
20260905210032 82 104 0.0 2.0 0.00 0.01 0.01 76 1015.5
20260905204519 81 215 0.0 1.0 0.00 0.01 0.01 79 1015.6
20260905203016 79 113 0.0 2.0 0.00 0.01 0.01 82 1015.8
20260905201517 79 162 0.0 2.0 0.00 0.01 0.01 80 1015.8
20260905200008 79 155 0.0 2.0 0.00 0.01 0.01 81 1015.9
20260905194532 80 132 0.0 2.0 0.00 0.01 0.01 79 1015.8
20260905193030 80 138 0.0 2.0 0.00 0.01 0.01 78 1015.8
20260905191522 81 259 0.0 3.0 0.00 0.01 0.01 78 1016.0
20260905190017 82 108 0.0 2.0 0.00 0.01 0.01 76 1016.0
20260905184529 82 209 0.0 3.0 0.00 0.01 0.01 76 1015.9
20260905183039 82 297 0.0 3.0 0.00 0.01 0.01 77 1016.0
20260905181538 82 171 0.0 2.0 0.00 0.01 0.01 77 1016.0
20260905180037 82 69 0.0 3.0 0.00 0.01 0.01 77 1015.9
20260905174523 82 118 0.0 2.0 0.00 0.01 0.01 78 1015.8
20260905173029 82 97 0.0 3.0 0.00 0.01 0.01 78 1015.8
20260905171516 82 26 1.0 3.0 0.00 0.01 0.01 80 1015.8
20260905170035 82 92 0.0 2.0 0.00 0.01 0.01 80 1016.0
20260905164533 82 188 0.0 2.0 0.00 0.01 0.01 80 1016.1
20260905163031 81 225 0.0 3.0 0.00 0.01 0.01 81 1016.1
20260905161525 80 211 0.0 3.0 0.00 0.01 0.01 82 1016.0
20260905160023 80 94 1.0 2.0 0.00 0.01 0.01 83 1016.0
20260905154520 79 88 1.0 3.0 0.00 0.01 0.01 85 1015.9
20260905153037 78 123 0.0 3.0 0.00 0.01 0.01 86 1015.9
20260905151532 78 126 0.0 5.0 0.00 0.01 0.01 87 1015.6
20260905150032 77 101 0.0 3.0 0.00 0.01 0.01 89 1015.5
20260905144528 76 54 0.0 4.0 0.00 0.01 0.01 91 1015.3
20260905143033 75 153 0.0 3.0 0.00 0.01 0.01 93 1015.3
20260905141520 74 215 0.0 2.0 0.00 0.01 0.01 93 1015.3
20260905140035 74 148 0.0 1.0 0.00 0.01 0.01 94 1015.1
20260905134538 74 148 0.0 2.0 0.00 0.01 0.01 94 1015.2
20260905133035 74 160 0.0 2.0 0.00 0.01 0.01 94 1015.4
20260905131531 74 163 0.0 0.0 0.00 0.01 0.01 94 1015.5
20260905130026 74 184 0.0 1.0 0.00 0.01 0.01 94 1014.9
20260905124535 74 219 0.0 2.0 0.00 0.01 0.01 94 1014.6
20260905123059 74 254 0.0 1.0 0.00 0.01 0.01 94 1014.4
20260905121535 74 254 0.0 0.0 0.00 0.01 0.01 94 1014.5
20260905120034 74 254 0.0 0.0 0.00 0.01 0.01 94 1014.2
20260905114530 74 254 0.0 0.0 0.00 0.01 0.01 94 1014.0
20260905113033 74 254 0.0 0.0 0.00 0.01 0.01 94 1013.8
20260905111527 75 254 0.0 1.0 0.00 0.01 0.01 94 1013.6
20260905110023 75 254 0.0 1.0 0.00 0.01 0.01 94 1013.4
20260905104517 75 254 0.0 0.0 0.00 0.01 0.01 94 1013.4
20260905103018 75 254 0.0 0.0 0.00 0.01 0.01 94 1013.4
20260905101511 75 254 0.0 0.0 0.00 0.01 0.01 94 1013.4
20260905100041 75 254 0.0 0.0 0.00 0.01 0.01 94 1013.4
20260905094529 75 254 0.0 0.0 0.00 0.01 0.01 94 1013.5
20260905093034 75 254 0.0 0.0 0.01 0.01 0.01 93 1013.3
20260905091520 75 254 0.0 0.0 0.01 0.01 0.01 93 1013.3
20260905090018 75 254 0.0 0.0 0.01 0.01 0.01 93 1013.3
20260905084534 75 254 0.0 0.0 0.01 0.01 0.01 93 1013.2
20260905083032 75 254 0.0 0.0 0.00 0.00 0.00 93 1013.4
20260905081536 75 254 0.0 0.0 0.00 0.00 0.00 93 1013.4
20260905080043 75 254 0.0 0.0 0.00 0.00 0.00 92 1013.2
20260905074524 76 254 0.0 0.0 0.00 0.00 0.00 92 1013.2
20260905073023 76 254 0.0 0.0 0.00 0.00 0.00 92 1013.4
20260905071518 76 254 0.0 0.0 0.00 0.00 0.00 92 1013.4
20260905070039 76 254 0.0 0.0 0.00 0.00 0.00 91 1013.7
20260905064535 77 254 0.0 0.0 0.00 0.00 0.00 91 1013.7
20260905063030 77 254 0.0 0.0 0.00 0.00 0.00 91 1013.7
20260905061526 77 254 0.0 0.0 0.00 0.00 0.00 90 1013.9
20260905060040 78 254 0.0 0.0 0.00 0.00 0.00 90 1013.9
20260905054517 78 254 0.0 0.0 0.00 0.00 0.00 89 1013.9
20260905053036 79 254 0.0 0.0 0.00 0.00 0.00 88 1013.8
20260905051548 80 254 0.0 0.0 0.00 0.00 0.00 87 1013.7
20260905050032 81 254 0.0 0.0 0.00 0.00 0.00 86 1013.7
20260905044537 82 254 0.0 0.0 0.00 0.00 0.00 84 1013.6
20260905043028 83 254 0.0 1.0 0.00 0.00 0.00 82 1013.5
20260905041536 83 248 0.0 1.0 0.00 0.00 0.00 81 1013.5
20260905040041 83 231 0.0 0.0 0.00 0.00 0.00 81 1013.6
20260905034539 83 231 0.0 1.0 0.00 0.00 0.00 81 1013.6
20260905033031 81 252 0.0 3.0 0.00 0.00 0.00 86 1014.2